KE0TRL Weather Reports


time (UTC)temp
C
wind
direction
speed
KPH
gust
KPH
rain 1hr
cm
rain 24hr
cm
rain mn
cm
humidity
%
barometer
mb
20260902043601 28 180 0.0 3.2 0.00 0.00 0.00 61 1009.8
20260902042502 28 158 0.0 3.2 0.00 0.00 0.00 61 1009.8
20260902041302 28 180 3.2 3.2 0.00 0.00 0.00 61 1009.8
20260902040202 28 158 3.2 6.4 0.00 0.00 0.00 61 1009.8
20260902035102 28 180 3.2 3.2 0.00 0.00 0.00 61 1009.8
20260902033902 28 23 3.2 4.8 0.00 0.00 0.00 63 1009.8
20260902032802 28 180 0.0 4.8 0.00 0.00 0.00 63 1009.8
20260902031702 28 158 1.6 3.2 0.00 0.00 0.00 65 1009.5
20260902030603 28 158 0.0 1.6 0.00 0.00 0.00 63 1009.8
20260902025503 29 225 1.6 3.2 0.00 0.00 0.00 61 1009.8
20260902024402 28 158 0.0 0.0 0.00 0.00 0.00 63 1009.5
20260902023302 29 0 1.6 1.6 0.00 0.00 0.00 63 1009.5
20260902022202 29 158 0.0 0.0 0.00 0.00 0.00 63 1009.1
20260902021102 30 158 0.0 0.0 0.00 0.00 0.00 61 1009.1
20260902013402 30 158 0.0 0.0 0.00 0.00 0.00 60 1008.8
20260902011202 31 180 0.0 0.0 0.00 0.00 0.00 58 1008.5
20260902005102 31 113 0.0 0.0 0.00 0.00 0.00 55 1008.8
20260902004102 32 113 3.2 3.2 0.00 0.00 0.00 54 1008.5
20260902002902 32 158 0.0 1.6 0.00 0.00 0.00 53 1008.5
20260902001702 33 113 4.8 4.8 0.00 0.00 0.00 51 1008.5
20260902000602 33 158 4.8 4.8 0.00 0.00 0.00 50 1008.8
20260901235402 34 113 4.8 4.8 0.00 0.00 0.00 50 1008.8
20260901234302 34 180 6.4 6.4 0.00 0.00 0.00 50 1008.8
20260901233202 34 338 6.4 8.0 0.00 0.00 0.00 50 1008.8
20260901231002 35 270 6.4 6.4 0.00 0.00 0.00 49 1008.8
20260901225503 35 158 4.8 4.8 0.00 0.00 0.00 50 1008.8
20260901180202 31 248 1.6 1.6 0.00 0.00 0.00 55 1010.8
20260901174802 31 113 3.2 3.2 0.00 0.00 0.00 55 1011.2
20260901164003 27 113 1.6 1.6 0.00 0.00 0.00 63 1011.5
20260901150902 27 135 1.6 1.6 0.00 0.00 0.00 63 1011.5
20260901142702 23 158 1.6 1.6 0.00 0.00 0.00 78 1011.5
20260901135403 23 158 3.2 3.2 0.00 0.00 0.00 78 1011.9
20260901122002 23 113 0.0 0.0 0.00 0.00 0.00 78 1011.2
20260901120603 23 158 0.0 0.0 0.00 0.00 0.00 78 1010.8
20260901113702 23 270 0.0 0.0 0.00 0.00 0.00 81 1010.8
20260901112502 23 180 0.0 0.0 0.00 0.00 0.00 81 1010.8
20260901110302 23 158 0.0 0.0 0.00 0.00 0.00 81 1011.2
20260901105002 23 180 0.0 0.0 0.00 0.00 0.00 81 1011.2
20260901103802 24 180 0.0 0.0 0.00 0.00 0.00 81 1011.2
20260901102702 24 225 0.0 0.0 0.00 0.00 0.00 81 1011.5
20260901100503 24 225 0.0 0.0 0.00 0.00 0.00 85 1011.5
20260901095402 24 203 0.0 0.0 0.00 0.00 0.00 85 1011.5
20260901094202 24 180 0.0 0.0 0.00 0.00 0.00 85 1011.5
20260901093102 23 203 0.0 0.0 0.00 0.00 0.00 85 1011.9
20260901092003 23 180 0.0 0.0 0.00 0.00 0.00 85 1011.5
20260901091002 23 248 0.0 0.0 0.00 0.00 0.00 85 1011.5
20260901085902 23 203 0.0 0.0 0.00 0.00 0.00 85 1011.5
20260901084702 23 180 0.0 0.0 0.00 0.00 0.00 83 1011.5
20260901083603 24 248 0.0 0.0 0.00 0.00 0.00 83 1011.5
20260901082502 24 248 0.0 0.0 0.00 0.00 0.00 83 1011.5
20260901081402 24 270 0.0 0.0 0.00 0.00 0.00 83 1011.5
20260901080003 24 270 0.0 1.6 0.00 0.00 0.00 83 1011.5
20260901074902 24 203 0.0 0.0 0.00 0.00 0.00 85 1011.5
20260901072702 24 180 0.0 0.0 0.00 0.00 0.00 86 1011.5
20260901071503 24 0 0.0 0.0 0.00 0.00 0.00 86 1011.5
20260901070303 24 270 1.6 3.2 0.00 0.00 0.00 86 1011.9
20260901065202 24 158 0.0 0.0 0.00 0.00 0.00 86 1012.2
20260901062002 24 158 0.0 0.0 0.00 0.00 0.00 86 1012.2
20260901060202 24 158 0.0 0.0 0.00 0.00 0.00 86 1011.9
20260901054702 24 158 0.0 0.0 0.00 0.00 0.00 86 1011.9
20260901053603 24 158 0.0 0.0 0.00 0.00 0.00 86 1012.2
20260901052602 25 158 0.0 0.0 0.00 0.00 0.00 86 1012.2
20260901050203 25 158 0.0 0.0 0.00 0.00 0.00 86 1012.2